Flag for Switzerland Weather past 2 weeks in Worb, Bern, Switzerland

Now
68 °F

Scattered clouds.


Feels Like: 68 °F
Forecast: 41 / 65 °F
Wind: 9 mph from North

Location: Bern / Belp

Current Time: May 24, 2015 at 4:13:22 PM

Latest Report: May 24, 2015 at 3:50 PM


Visibility: N/A

Pressure: 30.01 "Hg

Humidity: 49%

Dew point: 48 °F

Location of WorbLocation

Historic Weather in Worb — Graph

°F

Worb temperature yesterday

Maximum temperature yesterday: 64 °F (at 4:50 PM)
Minimum temperature yesterday: 41 °F (at 3:50 AM)
Average temperature yesterday: 53 °F

Past Weeks' High & Low Weather Summary

 TemperatureHumidityPressure
High84 °F (May 13, 3:20 PM)100% (May 10, 3:20 AM)30.36 "Hg (May 10, 3:20 AM)
Low39 °F (May 15, 1:20 PM)25% (May 12, 5:20 PM)29.77 "Hg (May 18, 5:50 PM)
Average57 °F72%30.10 "Hg
* Reported May 9 2:20 PM — May 24 2:50 PM, Worb, Weather by CustomWeather, © 2015

Note: Actual official high and low records may vary slightly from our data, if they occured in-between our weather recording intervals... More about our weather records

Advertising

Worb weather history for previous 24 hours

 ConditionsComfort  
Time TempWeatherWind HumidityBarometerVisibility
2:50 PM
Sun, May 24
66 °FScattered clouds.8 mph49%30.01 "HgN/A
2:20 PM66 °FScattered clouds.8 mph52%30.04 "HgN/A
1:50 PM64 °FScattered clouds.8 mph52%30.04 "HgN/A
1:20 PM64 °FScattered clouds.10 mph52%30.04 "HgN/A
12:50 PM64 °FPassing clouds.7 mph56%30.04 "HgN/A
12:20 PM64 °FPassing clouds.6 mph52%30.04 "HgN/A
11:50 AM63 °FPassing clouds.7 mph56%30.04 "HgN/A
11:20 AM63 °FPassing clouds.8 mph56%30.04 "HgN/A
10:50 AM63 °FPassing clouds.5 mph59%30.04 "HgN/A
10:20 AM59 °FPassing clouds.2 mph68%30.04 "HgN/A
9:50 AM57 °FSunny.3 mph63%30.04 "Hg10 mi
9:20 AM57 °FSunny.5 mph63%30.04 "Hg10 mi
8:50 AM55 °FPassing clouds.5 mph67%30.04 "HgN/A
8:20 AM52 °FPassing clouds.3 mph77%30.04 "HgN/A
7:50 AM52 °FPassing clouds.5 mph72%30.04 "HgN/A
7:20 AM48 °FScattered clouds.6 mph82%30.04 "HgN/A
6:50 AM45 °FPartly sunny.6 mph93%30.04 "HgN/A
6:20 AM45 °FPassing clouds.5 mph93%30.04 "HgN/A
5:50 AM45 °FPassing clouds.2 mph93%30.01 "HgN/A
5:20 AM46 °FOvercast.2 mph87%30.01 "HgN/A
4:50 AM46 °FPassing clouds.5 mph87%30.01 "HgN/A
4:20 AM48 °FPassing clouds.5 mph82%30.01 "HgN/A
3:50 AM50 °FOvercast.1 mph82%30.04 "HgN/A
3:20 AM48 °FOvercast.2 mph87%30.04 "HgN/A
2:50 AM48 °FOvercast.5 mph87%30.04 "HgN/A
2:20 AM48 °FOvercast.7 mph87%30.04 "HgN/A
1:50 AM48 °FOvercast.7 mph87%30.04 "HgN/A
1:20 AM48 °FPartly cloudy.5 mph94%30.07 "HgN/A
12:50 AM48 °FOvercast.5 mph87%30.04 "HgN/A
12:20 AM48 °FOvercast.3 mph87%30.07 "HgN/A
11:50 PM
Sat, May 23
48 °FOvercast.3 mph94%30.07 "HgN/A
11:20 PM48 °FPassing clouds.3 mph87%30.07 "HgN/A
10:50 PM50 °FPassing clouds.3 mph88%30.07 "HgN/A
10:20 PM52 °FPassing clouds.5 mph82%30.07 "HgN/A
9:50 PM52 °FScattered clouds.5 mph82%30.04 "HgN/A
9:20 PM54 °FPartly sunny.5 mph72%30.04 "HgN/A
8:50 PM55 °FScattered clouds.5 mph67%30.04 "HgN/A
8:20 PM59 °FScattered clouds.8 mph59%30.04 "HgN/A
7:50 PM61 °FPartly sunny.9 mph45%30.04 "HgN/A
7:20 PM63 °FPartly sunny.8 mph45%30.04 "HgN/A
6:50 PM63 °FPartly sunny.10 mph49%30.04 "HgN/A
6:20 PM61 °FPartly sunny.10 mph52%30.04 "HgN/A
5:50 PM61 °FPartly sunny.9 mph52%30.04 "HgN/A
5:20 PM63 °FScattered clouds.9 mph49%30.04 "HgN/A
4:50 PM64 °FScattered clouds.12 mph49%30.04 "HgN/A
4:20 PM61 °FScattered clouds.7 mph52%30.04 "HgN/A
Weather by CustomWeather, © 2015

See weather overviewHow to use our weather pages